Torna al catalogo

STARLINK-34665

AttivoComunicazioniVLEO
NORAD 65089·PAYLOAD·🇺🇸 United States

Lanciato Aug 4, 2025 da Cape Canaveral Space Force Station

Loading…

Prossimi Passaggi (prossime 24 ore)

TLE

AggiornatoSource: CelesTrak SupGP

Epoca: Sep 14, 2026, 22:36 UTC

1 65089C 25167M   26257.94215278  .00017503  00000+0  51699-3 0  2574
2 65089  53.1599 227.4275 0001373  89.6214  55.8113 15.34390247    17

Traccia STARLINK-34665 in tempo reale con AllMySat

Download on the App Store